BAW180 KJFK-EGLL

Flight info

Callsign BAW180
Flight time N/A
Altitude 37000
Route MERIT DCT HFD DCT PUT DCT WITCH DCT ALLEX DCT ELSIR/M084F390 DCT 50N050W 52N040W 53N030W 53N020W DCT MALOT/N0483F390 DCT GISTI DCT ENJEX DCT AVZAC DCT INFEC DCT JETZI DCT AMFUL DCT SIRIC
Aircraft B77W/H-SDE1E2E3FGHIJ2J3J4J5M1RWXY/LB1D1

Departure

Time 2026-05-08 23:39
Airport John F. Kennedy International Airport (KJFK)

Arrival

Time N/A
Airport London Heathrow Airport (EGLL)
Time Latitude Longitude Altitude Speed Heading
2026-05-08 23:12 40.64843 -73.79176 28 ft 0 kts 172°
2026-05-08 23:25 40.64847 -73.79177 28 ft 2 kts 171°
2026-05-08 23:25 40.64866 -73.79182 27 ft 3 kts 166°
2026-05-08 23:25 40.64884 -73.79187 27 ft 3 kts 170°
2026-05-08 23:25 40.64902 -73.79190 26 ft 3 kts 189°
2026-05-08 23:26 40.64918 -73.79184 25 ft 3 kts 211°
2026-05-08 23:26 40.64933 -73.79170 25 ft 3 kts 229°
2026-05-08 23:26 40.64944 -73.79150 26 ft 3 kts 239°
2026-05-08 23:26 40.64949 -73.79140 26 ft 0 kts 240°
2026-05-08 23:30 40.64946 -73.79147 26 ft 3 kts 240°
2026-05-08 23:30 40.64925 -73.79198 26 ft 10 kts 242°
2026-05-08 23:30 40.64882 -73.79306 28 ft 17 kts 242°
2026-05-08 23:30 40.64845 -73.79398 28 ft 5 kts 242°
2026-05-08 23:31 40.64817 -73.79467 28 ft 12 kts 242°
2026-05-08 23:31 40.64769 -73.79584 28 ft 18 kts 240°
2026-05-08 23:31 40.64697 -73.79702 28 ft 15 kts 201°
2026-05-08 23:31 40.64605 -73.79655 28 ft 15 kts 147°
2026-05-08 23:32 40.64491 -73.79603 29 ft 20 kts 173°
2026-05-08 23:32 40.64329 -73.79600 29 ft 26 kts 183°
2026-05-08 23:32 40.64129 -73.79606 29 ft 31 kts 175°
2026-05-08 23:32 40.64036 -73.79569 27 ft 5 kts 149°
2026-05-08 23:33 40.63994 -73.79517 27 ft 11 kts 130°
2026-05-08 23:33 40.63936 -73.79406 26 ft 18 kts 121°
2026-05-08 23:33 40.63859 -73.79237 30 ft 24 kts 120°
2026-05-08 23:33 40.63769 -73.79035 27 ft 28 kts 121°
2026-05-08 23:34 40.63693 -73.78867 31 ft 22 kts 121°
2026-05-08 23:34 40.63604 -73.78676 31 ft 27 kts 121°
2026-05-08 23:34 40.63499 -73.78449 31 ft 32 kts 121°
2026-05-08 23:34 40.63381 -73.78183 30 ft 36 kts 119°
2026-05-08 23:35 40.63331 -73.78046 29 ft 7 kts 107°
2026-05-08 23:35 40.63324 -73.77984 29 ft 7 kts 89°
2026-05-08 23:35 40.63333 -73.77921 30 ft 7 kts 80°
2026-05-08 23:35 40.63325 -73.77855 31 ft 7 kts 112°
2026-05-08 23:36 40.63303 -73.77793 32 ft 8 kts 116°
2026-05-08 23:36 40.63271 -73.77711 32 ft 12 kts 119°
2026-05-08 23:36 40.63220 -73.77606 32 ft 15 kts 123°
2026-05-08 23:36 40.63160 -73.77483 34 ft 18 kts 122°
2026-05-08 23:37 40.63095 -73.77345 32 ft 12 kts 120°
2026-05-08 23:37 40.63045 -73.77232 32 ft 16 kts 120°
2026-05-08 23:37 40.62962 -73.77104 28 ft 21 kts 165°
2026-05-08 23:37 40.62843 -73.77172 28 ft 13 kts 219°
2026-05-08 23:38 40.62834 -73.77249 29 ft 9 kts 299°
2026-05-08 23:38 40.62916 -73.77427 32 ft 54 kts 301°
2026-05-08 23:38 40.63268 -73.78207 27 ft 144 kts 301°
2026-05-08 23:38 40.63926 -73.79662 160 ft 214 kts 301°
2026-05-08 23:39 40.64690 -73.81333 1468 ft 198 kts 301°
2026-05-08 23:39 40.65384 -73.82824 3091 ft 188 kts 296°
2026-05-08 23:39 40.65650 -73.84417 4116 ft 167 kts 261°
2026-05-08 23:39 40.65302 -73.85746 4838 ft 144 kts 240°
2026-05-08 23:40 40.64665 -73.86737 5054 ft 147 kts 225°
2026-05-08 23:40 40.63759 -73.87563 4977 ft 170 kts 205°
2026-05-08 23:40 40.62540 -73.87894 4973 ft 185 kts 204°
2026-05-08 23:40 40.61497 -73.88809 5005 ft 184 kts 229°
2026-05-08 23:41 40.60340 -73.89690 5045 ft 212 kts 191°
2026-05-08 23:41 40.58772 -73.89422 4996 ft 244 kts 170°
2026-05-08 23:41 40.57161 -73.88460 5167 ft 269 kts 144°
2026-05-08 23:41 40.55953 -73.86480 5599 ft 289 kts 116°
2026-05-08 23:42 40.55504 -73.83857 6116 ft 301 kts 88°
2026-05-08 23:42 40.55754 -73.81112 6667 ft 306 kts 79°
2026-05-08 23:42 40.56147 -73.78370 7258 ft 311 kts 78°
2026-05-08 23:42 40.56562 -73.75562 7972 ft 313 kts 77°
2026-05-08 23:43 40.56983 -73.72733 8616 ft 318 kts 77°
2026-05-08 23:43 40.57421 -73.69797 8926 ft 337 kts 77°
2026-05-08 23:43 40.57889 -73.66674 9132 ft 359 kts 77°
2026-05-08 23:43 40.58429 -73.63384 9466 ft 372 kts 70°
2026-05-08 23:44 40.59564 -73.60369 9981 ft 373 kts 48°
2026-05-08 23:44 40.61256 -73.57807 10685 ft 370 kts 39°
2026-05-08 23:44 40.63073 -73.55405 11489 ft 371 kts 37°
2026-05-08 23:44 40.64934 -73.53057 12219 ft 368 kts 31°
2026-05-08 23:45 40.67010 -73.51234 13272 ft 346 kts 19°
2026-05-08 23:45 40.69110 -73.49855 14376 ft 333 kts 14°
2026-05-08 23:45 40.71255 -73.48647 14973 ft 336 kts 12°
2026-05-08 23:45 40.73445 -73.47503 15513 ft 342 kts 11°
2026-05-08 23:46 40.75679 -73.46362 16012 ft 345 kts 11°
2026-05-08 23:46 40.77912 -73.45223 16008 ft 349 kts 12°
2026-05-08 23:46 40.80190 -73.44057 16463 ft 353 kts 12°
2026-05-08 23:46 40.82490 -73.42873 17009 ft 359 kts 12°
2026-05-08 23:47 40.84893 -73.41646 17007 ft 382 kts 12°
2026-05-08 23:47 40.87436 -73.40345 17040 ft 400 kts 13°
2026-05-08 23:47 40.90039 -73.38993 17015 ft 403 kts 13°
2026-05-08 23:47 40.92643 -73.37628 17010 ft 403 kts 13°
2026-05-08 23:48 40.95252 -73.36256 17010 ft 403 kts 13°
2026-05-08 23:48 40.97826 -73.34781 17000 ft 407 kts 20°
2026-05-08 23:48 41.00199 -73.32683 17016 ft 418 kts 31°
2026-05-08 23:48 41.02360 -73.30048 17011 ft 427 kts 40°
2026-05-08 23:49 41.04265 -73.26965 17309 ft 437 kts 45°
2026-05-08 23:49 41.06120 -73.23809 17930 ft 440 kts 45°
2026-05-08 23:49 41.08009 -73.20590 18598 ft 443 kts 45°
2026-05-08 23:49 41.09909 -73.17358 19144 ft 446 kts 45°
2026-05-08 23:50 41.11834 -73.14095 19654 ft 451 kts 45°
2026-05-08 23:50 41.13785 -73.10796 20135 ft 456 kts 45°
2026-05-08 23:50 41.15754 -73.07468 20695 ft 460 kts 45°
2026-05-08 23:50 41.17717 -73.04152 21200 ft 464 kts 44°
2026-05-08 23:51 41.19720 -73.00768 21707 ft 468 kts 45°
2026-05-08 23:51 41.21739 -72.97351 22206 ft 472 kts 45°
2026-05-08 23:51 41.23779 -72.93898 22685 ft 476 kts 45°
2026-05-08 23:51 41.25660 -72.90708 23140 ft 480 kts 45°
2026-05-08 23:52 41.27737 -72.87183 23619 ft 484 kts 45°
2026-05-08 23:52 41.29824 -72.83637 24013 ft 487 kts 45°
2026-05-08 23:52 41.31890 -72.80120 24444 ft 491 kts 45°
2026-05-08 23:52 41.34005 -72.76516 24849 ft 493 kts 45°
2026-05-08 23:53 41.36119 -72.72910 25238 ft 496 kts 45°
2026-05-08 23:53 41.38255 -72.69264 25603 ft 500 kts 45°
2026-05-08 23:53 41.40402 -72.65595 25954 ft 504 kts 45°
2026-05-08 23:53 41.42565 -72.61893 26316 ft 507 kts 45°
2026-05-08 23:54 41.44742 -72.58161 26680 ft 510 kts 45°
2026-05-08 23:54 41.46930 -72.54408 26915 ft 516 kts 45°
2026-05-08 23:54 41.49142 -72.50609 26973 ft 519 kts 45°
2026-05-08 23:55 41.53551 -72.43015 27781 ft 521 kts 45°
2026-05-08 23:55 41.55777 -72.39171 28161 ft 523 kts 45°
2026-05-08 23:55 41.58014 -72.35308 28462 ft 526 kts 45°
2026-05-08 23:55 41.60262 -72.31425 28719 ft 530 kts 45°
2026-05-08 23:56 41.62523 -72.27513 29026 ft 532 kts 45°
2026-05-08 23:56 41.64752 -72.23648 29496 ft 530 kts 45°
2026-05-08 23:56 41.66996 -72.19748 30015 ft 528 kts 45°
2026-05-08 23:56 41.69257 -72.15812 30380 ft 528 kts 45°
2026-05-08 23:57 41.71474 -72.11954 30624 ft 530 kts 45°
2026-05-08 23:57 41.73731 -72.08023 30912 ft 530 kts 45°
2026-05-08 23:57 41.75979 -72.04102 31241 ft 530 kts 45°
2026-05-08 23:57 41.78221 -72.00187 31530 ft 530 kts 45°
2026-05-08 23:58 41.80391 -71.96393 31844 ft 530 kts 45°
2026-05-08 23:58 41.82604 -71.92516 32172 ft 528 kts 45°
2026-05-08 23:58 41.84834 -71.88603 32456 ft 528 kts 45°
2026-05-08 23:58 41.87068 -71.84683 32668 ft 530 kts 45°
2026-05-08 23:59 41.89313 -71.80740 32908 ft 530 kts 45°
2026-05-08 23:59 41.91552 -71.76800 33164 ft 530 kts 45°
2026-05-08 23:59 41.93786 -71.72862 33427 ft 531 kts 45°
2026-05-08 23:59 41.96025 -71.68911 33690 ft 531 kts 46°
2026-05-09 00:00 41.98261 -71.64958 33907 ft 531 kts 46°
2026-05-09 00:00 42.00500 -71.60998 34015 ft 534 kts 46°
2026-05-09 00:00 42.02748 -71.57018 34111 ft 536 kts 46°
2026-05-09 00:00 42.05007 -71.53012 34217 ft 538 kts 46°
2026-05-09 00:01 42.07269 -71.48994 34338 ft 539 kts 46°
2026-05-09 00:01 42.09532 -71.44967 34454 ft 540 kts 46°
2026-05-09 00:01 42.11802 -71.40924 34613 ft 541 kts 46°
2026-05-09 00:01 42.14043 -71.36926 34732 ft 542 kts 46°
2026-05-09 00:02 42.16317 -71.32864 34831 ft 543 kts 47°
2026-05-09 00:02 42.20880 -71.24698 34934 ft 546 kts 47°
2026-05-09 00:03 42.25462 -71.16476 34990 ft 548 kts 47°
2026-05-09 00:03 42.27743 -71.12372 35244 ft 546 kts 47°
2026-05-09 00:03 42.30023 -71.08263 35340 ft 546 kts 47°
2026-05-09 00:04 42.33824 -71.01408 35371 ft 549 kts 47°
2026-05-09 00:04 42.39064 -70.91933 35550 ft 550 kts 47°
2026-05-09 00:05 42.42886 -70.85000 35682 ft 551 kts 47°
2026-05-09 00:05 42.45919 -70.79485 35795 ft 551 kts 48°
2026-05-09 00:05 42.47470 -70.76662 35824 ft 552 kts 48°
2026-05-09 00:06 42.52039 -70.68333 35889 ft 554 kts 48°
2026-05-09 00:06 42.56640 -70.59918 36012 ft 554 kts 48°
2026-05-09 00:07 42.61230 -70.51501 36109 ft 555 kts 48°
2026-05-09 00:07 42.65791 -70.43113 36167 ft 556 kts 48°
2026-05-09 00:08 42.70387 -70.34638 36247 ft 557 kts 48°
2026-05-09 00:08 42.74979 -70.26146 36349 ft 557 kts 49°
2026-05-09 00:09 42.79534 -70.17691 36741 ft 549 kts 49°
2026-05-09 00:09 42.84042 -70.09303 36846 ft 547 kts 49°
2026-05-09 00:10 42.88524 -70.00949 36920 ft 546 kts 49°
2026-05-09 00:10 42.92899 -69.92769 36928 ft 547 kts 49°
2026-05-09 00:11 42.97384 -69.84360 36927 ft 547 kts 49°
2026-05-09 00:11 43.01820 -69.76017 36925 ft 547 kts 49°
2026-05-09 00:12 43.06300 -69.67566 36916 ft 548 kts 49°
2026-05-09 00:12 43.10772 -69.59107 36926 ft 548 kts 49°
2026-05-09 00:13 43.15240 -69.50632 36930 ft 549 kts 50°
2026-05-09 00:13 43.19675 -69.42196 36932 ft 549 kts 50°
2026-05-09 00:14 43.24139 -69.33677 36918 ft 549 kts 50°
2026-05-09 00:14 43.28600 -69.25143 36939 ft 550 kts 50°
2026-05-09 00:15 43.33053 -69.16597 36922 ft 550 kts 50°
2026-05-09 00:15 43.37471 -69.08096 36914 ft 550 kts 50°
2026-05-09 00:16 43.41818 -68.99706 36942 ft 550 kts 51°
2026-05-09 00:16 43.46260 -68.91110 36921 ft 550 kts 51°
2026-05-09 00:17 43.50686 -68.82517 36907 ft 550 kts 51°
2026-05-09 00:17 43.55076 -68.73969 36914 ft 549 kts 51°
2026-05-09 00:18 43.59477 -68.65376 36922 ft 549 kts 51°
2026-05-09 00:18 43.63880 -68.56754 36912 ft 548 kts 51°
2026-05-09 00:19 43.68269 -68.48136 36912 ft 548 kts 51°
2026-05-09 00:19 43.72649 -68.39507 36910 ft 547 kts 52°
2026-05-09 00:20 43.77018 -68.30876 36920 ft 547 kts 52°
2026-05-09 00:20 43.81346 -68.22300 36890 ft 546 kts 52°
2026-05-09 00:21 43.85693 -68.13662 36920 ft 546 kts 52°
2026-05-09 00:21 43.90033 -68.05012 36906 ft 545 kts 52°
2026-05-09 00:22 43.94275 -67.96532 36900 ft 545 kts 52°
2026-05-09 00:22 43.98594 -67.87873 36922 ft 545 kts 52°
2026-05-09 00:23 44.02874 -67.79268 36907 ft 545 kts 52°
2026-05-09 00:23 44.07175 -67.70591 36899 ft 545 kts 52°
2026-05-09 00:24 44.08439 -67.68038 36900 ft 545 kts 52°
2026-05-09 00:24 44.12352 -67.60117 36925 ft 544 kts 53°
2026-05-09 00:25 44.16641 -67.51409 36888 ft 544 kts 53°
2026-05-09 00:25 44.20919 -67.42697 36894 ft 544 kts 53°
2026-05-09 00:26 44.25187 -67.33981 36894 ft 544 kts 53°
2026-05-09 00:26 44.29449 -67.25250 36901 ft 544 kts 53°
2026-05-09 00:27 44.33704 -67.16507 36884 ft 544 kts 53°
2026-05-09 00:27 44.37922 -67.07813 36882 ft 543 kts 53°
2026-05-09 00:28 44.42069 -66.99240 36881 ft 543 kts 54°
2026-05-09 00:28 44.46127 -66.90294 36873 ft 544 kts 56°
2026-05-09 00:29 44.50045 -66.81223 36861 ft 544 kts 57°
2026-05-09 00:29 44.53938 -66.72214 36884 ft 544 kts 57°
2026-05-09 00:30 44.57884 -66.63159 36867 ft 544 kts 57°
2026-05-09 00:30 44.61839 -66.54098 36861 ft 544 kts 57°
2026-05-09 00:31 44.65783 -66.45034 36860 ft 543 kts 57°
2026-05-09 00:31 44.69714 -66.35965 36863 ft 543 kts 57°
2026-05-09 00:32 44.73609 -66.26944 36852 ft 543 kts 57°
2026-05-09 00:32 44.77523 -66.17849 36858 ft 543 kts 57°
2026-05-09 00:33 44.81436 -66.08728 36859 ft 543 kts 57°
2026-05-09 00:33 44.85269 -65.99767 36866 ft 543 kts 57°
2026-05-09 00:34 44.87431 -65.94700 36863 ft 543 kts 58°